Year,Month,Day,Hour,Minute,Value (Times are PST for temperature in C)
2014,08,23,00,00,14.80
2014,08,23,00,01,14.80
2014,08,23,00,02,14.80
2014,08,23,00,03,14.80
2014,08,23,00,04,14.80
2014,08,23,00,05,14.80
2014,08,23,00,06,14.80
2014,08,23,00,07,14.80
2014,08,23,00,08,14.80
2014,08,23,00,09,14.80
2014,08,23,00,10,14.80
2014,08,23,00,11,14.80
2014,08,23,00,12,14.80
2014,08,23,00,13,14.80
2014,08,23,00,14,14.80
2014,08,23,00,15,14.80
2014,08,23,00,16,14.80
2014,08,23,00,17,14.80
2014,08,23,00,18,14.80
2014,08,23,00,19,14.80
2014,08,23,00,20,14.80
2014,08,23,00,21,14.80
2014,08,23,00,22,14.80
2014,08,23,00,23,14.80
2014,08,23,00,24,14.80
2014,08,23,00,25,14.80
2014,08,23,00,26,14.80
2014,08,23,00,27,14.80
2014,08,23,00,28,14.80
2014,08,23,00,29,14.80
2014,08,23,00,30,14.80
2014,08,23,00,31,14.70
2014,08,23,00,32,14.70
2014,08,23,00,33,14.70
2014,08,23,00,34,14.70
2014,08,23,00,35,14.70
2014,08,23,00,36,14.60
2014,08,23,00,37,14.60
2014,08,23,00,38,14.60
2014,08,23,00,39,14.60
2014,08,23,00,40,14.50
2014,08,23,00,41,14.50
2014,08,23,00,42,14.50
2014,08,23,00,43,14.50
2014,08,23,00,44,14.50
2014,08,23,00,45,14.50
2014,08,23,00,46,14.50
2014,08,23,00,47,14.50
2014,08,23,00,48,14.40
2014,08,23,00,49,14.40
2014,08,23,00,50,14.40
2014,08,23,00,51,14.40
2014,08,23,00,52,14.40
2014,08,23,00,53,14.40
2014,08,23,00,54,14.40
2014,08,23,00,55,14.40
2014,08,23,00,56,14.40
2014,08,23,00,57,14.40
2014,08,23,00,58,14.40
2014,08,23,00,59,14.40
2014,08,23,01,00,14.40
2014,08,23,01,01,14.40
2014,08,23,01,02,14.30
2014,08,23,01,03,14.30
2014,08,23,01,04,14.30
2014,08,23,01,05,14.20
2014,08,23,01,06,14.20
2014,08,23,01,07,14.20
2014,08,23,01,08,14.20
2014,08,23,01,09,14.20
2014,08,23,01,10,14.20
2014,08,23,01,11,14.20
2014,08,23,01,12,14.20
2014,08,23,01,13,14.20
2014,08,23,01,14,14.20
2014,08,23,01,15,14.20
2014,08,23,01,16,14.20
2014,08,23,01,17,14.20
2014,08,23,01,18,14.10
2014,08,23,01,19,14.10
2014,08,23,01,20,14.10
2014,08,23,01,21,14.10
2014,08,23,01,22,14.10
2014,08,23,01,23,14.10
2014,08,23,01,24,14.10
2014,08,23,01,25,14.10
2014,08,23,01,26,14.10
2014,08,23,01,27,14.10
2014,08,23,01,28,14.00
2014,08,23,01,29,14.00
2014,08,23,01,30,14.00
2014,08,23,01,31,14.00
2014,08,23,01,32,14.00
2014,08,23,01,33,14.00
2014,08,23,01,34,14.00
2014,08,23,01,35,14.00
2014,08,23,01,36,13.90
2014,08,23,01,37,13.90
2014,08,23,01,38,13.90
2014,08,23,01,39,13.90
2014,08,23,01,40,13.90
2014,08,23,01,41,13.80
2014,08,23,01,42,13.80
2014,08,23,01,43,13.80
2014,08,23,01,44,13.80
2014,08,23,01,45,13.70
2014,08,23,01,46,13.70
2014,08,23,01,47,13.70
2014,08,23,01,48,13.70
2014,08,23,01,49,13.70
2014,08,23,01,50,13.70
2014,08,23,01,51,13.70
2014,08,23,01,52,13.70
2014,08,23,01,53,13.70
2014,08,23,01,54,13.70
2014,08,23,01,55,13.70
2014,08,23,01,56,13.70
2014,08,23,01,57,13.70
2014,08,23,01,58,13.70
2014,08,23,01,59,13.70
2014,08,23,02,00,13.70
2014,08,23,02,01,13.70
2014,08,23,02,02,13.60
2014,08,23,02,03,13.60
2014,08,23,02,04,13.60
2014,08,23,02,05,13.60
2014,08,23,02,06,13.60
2014,08,23,02,07,13.60
2014,08,23,02,08,13.60
2014,08,23,02,09,13.60
2014,08,23,02,10,13.60
2014,08,23,02,11,13.60
2014,08,23,02,12,13.60
2014,08,23,02,13,13.60
2014,08,23,02,14,13.60
2014,08,23,02,15,13.60
2014,08,23,02,16,13.50
2014,08,23,02,17,13.50
2014,08,23,02,18,13.50
2014,08,23,02,19,13.50
2014,08,23,02,20,13.50
2014,08,23,02,21,13.50
2014,08,23,02,22,13.50
2014,08,23,02,23,13.50
2014,08,23,02,24,13.50
2014,08,23,02,25,13.50
2014,08,23,02,26,13.40
2014,08,23,02,27,13.40
2014,08,23,02,28,13.40
2014,08,23,02,29,13.40
2014,08,23,02,30,13.40
2014,08,23,02,31,13.40
2014,08,23,02,32,13.40
2014,08,23,02,33,13.30
2014,08,23,02,34,13.30
2014,08,23,02,35,13.30
2014,08,23,02,36,13.30
2014,08,23,02,37,13.30
2014,08,23,02,38,13.30
2014,08,23,02,39,13.30
2014,08,23,02,40,13.30
2014,08,23,02,41,13.30
2014,08,23,02,42,13.30
2014,08,23,02,43,13.30
2014,08,23,02,44,13.30
2014,08,23,02,45,13.30
2014,08,23,02,46,13.30
2014,08,23,02,47,13.20
2014,08,23,02,48,13.20
2014,08,23,02,49,13.20
2014,08,23,02,50,13.20
2014,08,23,02,51,13.20
2014,08,23,02,52,13.20
2014,08,23,02,53,13.20
2014,08,23,02,54,13.20
2014,08,23,02,55,13.20
2014,08,23,02,56,13.20
2014,08,23,02,57,13.10
2014,08,23,02,58,13.10
2014,08,23,02,59,13.10
2014,08,23,03,00,13.10
2014,08,23,03,01,13.10
2014,08,23,03,02,13.10
2014,08,23,03,03,13.10
2014,08,23,03,04,13.10
2014,08,23,03,05,13.10
2014,08,23,03,06,13.10
2014,08,23,03,07,13.10
2014,08,23,03,08,13.10
2014,08,23,03,09,13.10
2014,08,23,03,10,13.10
2014,08,23,03,11,13.00
2014,08,23,03,12,13.00
2014,08,23,03,13,13.00
2014,08,23,03,14,13.00
2014,08,23,03,15,13.00
2014,08,23,03,16,13.00
2014,08,23,03,17,13.00
2014,08,23,03,18,13.00
2014,08,23,03,19,13.00
2014,08,23,03,20,13.00
2014,08,23,03,21,12.90
2014,08,23,03,22,12.90
2014,08,23,03,23,12.90
2014,08,23,03,24,12.90
2014,08,23,03,25,12.90
2014,08,23,03,26,12.90
2014,08,23,03,27,12.90
2014,08,23,03,28,12.90
2014,08,23,03,29,12.90
2014,08,23,03,30,12.80
2014,08,23,03,31,12.80
2014,08,23,03,32,12.80
2014,08,23,03,33,12.80
2014,08,23,03,34,12.80
2014,08,23,03,35,12.80
2014,08,23,03,36,12.80
2014,08,23,03,37,12.80
2014,08,23,03,38,12.80
2014,08,23,03,39,12.80
2014,08,23,03,40,12.80
2014,08,23,03,41,12.80
2014,08,23,03,42,12.80
2014,08,23,03,43,12.80
2014,08,23,03,44,12.80
2014,08,23,03,45,12.80
2014,08,23,03,46,12.80
2014,08,23,03,47,12.80
2014,08,23,03,48,12.80
2014,08,23,03,49,12.80
2014,08,23,03,50,12.80
2014,08,23,03,51,12.80
2014,08,23,03,52,12.80
2014,08,23,03,53,12.70
2014,08,23,03,54,12.70
2014,08,23,03,55,12.70
2014,08,23,03,56,12.70
2014,08,23,03,57,12.70
2014,08,23,03,58,12.70
2014,08,23,03,59,12.70
2014,08,23,04,00,12.70
2014,08,23,04,01,12.70
2014,08,23,04,02,12.70
2014,08,23,04,03,12.70
2014,08,23,04,04,12.70
2014,08,23,04,05,12.70
2014,08,23,04,06,12.70
2014,08,23,04,07,12.60
2014,08,23,04,08,12.60
2014,08,23,04,09,12.60
2014,08,23,04,10,12.60
2014,08,23,04,11,12.60
2014,08,23,04,12,12.60
2014,08,23,04,13,12.60
2014,08,23,04,14,12.60
2014,08,23,04,15,12.50
2014,08,23,04,16,12.50
2014,08,23,04,17,12.50
2014,08,23,04,18,12.50
2014,08,23,04,19,12.50
2014,08,23,04,20,12.50
2014,08,23,04,21,12.50
2014,08,23,04,22,12.50
2014,08,23,04,23,12.50
2014,08,23,04,24,12.40
2014,08,23,04,25,12.40
2014,08,23,04,26,12.40
2014,08,23,04,27,12.40
2014,08,23,04,28,12.40
2014,08,23,04,29,12.30
2014,08,23,04,30,12.30
2014,08,23,04,31,12.30
2014,08,23,04,32,12.30
2014,08,23,04,33,12.30
2014,08,23,04,34,12.30
2014,08,23,04,35,12.30
2014,08,23,04,36,12.30
2014,08,23,04,37,12.30
2014,08,23,04,38,12.30
2014,08,23,04,39,12.30
2014,08,23,04,40,12.20
2014,08,23,04,41,12.20
2014,08,23,04,42,12.20
2014,08,23,04,43,12.20
2014,08,23,04,44,12.20
2014,08,23,04,45,12.10
2014,08,23,04,46,12.10
2014,08,23,04,47,12.10
2014,08,23,04,48,12.10
2014,08,23,04,49,12.10
2014,08,23,04,50,12.10
2014,08,23,04,51,12.10
2014,08,23,04,52,12.00
2014,08,23,04,53,12.00
2014,08,23,04,54,12.00
2014,08,23,04,55,12.00
2014,08,23,04,56,12.00
2014,08,23,04,57,12.00
2014,08,23,04,58,12.00
2014,08,23,04,59,12.00
2014,08,23,05,00,12.00
2014,08,23,05,01,12.00
2014,08,23,05,02,12.00
2014,08,23,05,03,12.00
2014,08,23,05,04,12.00
2014,08,23,05,05,12.00
2014,08,23,05,06,12.00
2014,08,23,05,07,12.00
2014,08,23,05,08,12.00
2014,08,23,05,09,11.90
2014,08,23,05,10,11.90
2014,08,23,05,11,11.90
2014,08,23,05,12,11.90
2014,08,23,05,13,11.90
2014,08,23,05,14,11.90
2014,08,23,05,15,12.00
2014,08,23,05,16,12.00
2014,08,23,05,17,12.00
2014,08,23,05,18,12.00
2014,08,23,05,19,12.00
2014,08,23,05,20,12.00
2014,08,23,05,21,12.00
2014,08,23,05,22,12.00
2014,08,23,05,23,12.00
2014,08,23,05,24,12.00
2014,08,23,05,25,12.00
2014,08,23,05,26,12.00
2014,08,23,05,27,12.00
2014,08,23,05,28,12.00
2014,08,23,05,29,12.00
2014,08,23,05,30,12.10
2014,08,23,05,31,12.10
2014,08,23,05,32,12.10
2014,08,23,05,33,12.10
2014,08,23,05,34,12.10
2014,08,23,05,35,12.10
2014,08,23,05,36,12.00
2014,08,23,05,37,12.00
2014,08,23,05,38,12.00
2014,08,23,05,39,12.00
2014,08,23,05,40,12.00
2014,08,23,05,41,12.00
2014,08,23,05,42,12.00
2014,08,23,05,43,12.00
2014,08,23,05,44,12.00
2014,08,23,05,45,12.00
2014,08,23,05,46,12.00
2014,08,23,05,47,12.00
2014,08,23,05,48,12.00
2014,08,23,05,49,11.90
2014,08,23,05,50,11.90
2014,08,23,05,51,11.90
2014,08,23,05,52,11.90
2014,08,23,05,53,11.90
2014,08,23,05,54,11.90
2014,08,23,05,55,11.90
2014,08,23,05,56,11.90
2014,08,23,05,57,11.90
2014,08,23,05,58,12.00
2014,08,23,05,59,12.00
2014,08,23,06,00,12.00
2014,08,23,06,01,11.90
2014,08,23,06,02,11.90
2014,08,23,06,03,12.00
2014,08,23,06,04,11.90
2014,08,23,06,05,11.90
2014,08,23,06,06,11.90
2014,08,23,06,07,11.90
2014,08,23,06,08,11.90
2014,08,23,06,09,11.90
2014,08,23,06,10,11.90
2014,08,23,06,11,11.90
2014,08,23,06,12,11.90
2014,08,23,06,13,11.90
2014,08,23,06,14,11.90
2014,08,23,06,15,11.90
2014,08,23,06,16,11.80
2014,08,23,06,17,11.80
2014,08,23,06,18,11.80
2014,08,23,06,19,11.80
2014,08,23,06,20,11.80
2014,08,23,06,21,11.80
2014,08,23,06,22,11.80
2014,08,23,06,23,11.80
2014,08,23,06,24,11.80
2014,08,23,06,25,11.80
2014,08,23,06,26,11.80
2014,08,23,06,27,11.80
2014,08,23,06,28,11.80
2014,08,23,06,29,11.80
2014,08,23,06,30,11.80
2014,08,23,06,31,11.80
2014,08,23,06,32,11.80
2014,08,23,06,33,11.80
2014,08,23,06,34,11.80
2014,08,23,06,35,11.80
2014,08,23,06,36,11.80
2014,08,23,06,37,11.80
2014,08,23,06,38,11.80
2014,08,23,06,39,11.80
2014,08,23,06,40,11.80
2014,08,23,06,41,11.80
2014,08,23,06,42,11.80
2014,08,23,06,43,11.80
2014,08,23,06,44,11.80
2014,08,23,06,45,11.80
2014,08,23,06,46,11.80
2014,08,23,06,47,11.80
2014,08,23,06,48,11.80
2014,08,23,06,49,11.80
2014,08,23,06,50,11.80
2014,08,23,06,51,11.80
2014,08,23,06,52,11.80
2014,08,23,06,53,11.70
2014,08,23,06,54,11.70
2014,08,23,06,55,11.70
2014,08,23,06,56,11.70
2014,08,23,06,57,11.70
2014,08,23,06,58,11.70
2014,08,23,06,59,11.70
2014,08,23,07,00,11.70
2014,08,23,07,01,11.70
2014,08,23,07,02,11.70
2014,08,23,07,03,11.70
2014,08,23,07,04,11.70
2014,08,23,07,05,11.70
2014,08,23,07,06,11.70
2014,08,23,07,07,11.70
2014,08,23,07,08,11.70
2014,08,23,07,09,11.70
2014,08,23,07,10,11.70
2014,08,23,07,11,11.70
2014,08,23,07,12,11.70
2014,08,23,07,13,11.70
2014,08,23,07,14,11.70
2014,08,23,07,15,11.70
2014,08,23,07,16,11.70
2014,08,23,07,17,11.70
2014,08,23,07,18,11.70
2014,08,23,07,19,11.70
2014,08,23,07,20,11.70
2014,08,23,07,21,11.80
2014,08,23,07,22,11.80
2014,08,23,07,23,11.80
2014,08,23,07,24,11.80
2014,08,23,07,25,11.80
2014,08,23,07,26,11.80
2014,08,23,07,27,11.80
2014,08,23,07,28,11.80
2014,08,23,07,29,11.80
2014,08,23,07,30,11.80
2014,08,23,07,31,11.80
2014,08,23,07,32,11.80
2014,08,23,07,33,11.80
2014,08,23,07,34,11.80
2014,08,23,07,35,11.80
2014,08,23,07,36,11.90
2014,08,23,07,37,11.90
2014,08,23,07,38,11.90
2014,08,23,07,39,11.90
2014,08,23,07,40,11.90
2014,08,23,07,41,11.90
2014,08,23,07,42,11.90
2014,08,23,07,43,11.90
2014,08,23,07,44,11.90
2014,08,23,07,45,11.90
2014,08,23,07,46,12.00
2014,08,23,07,47,12.00
2014,08,23,07,48,12.00
2014,08,23,07,49,12.00
2014,08,23,07,50,12.00
2014,08,23,07,51,12.00
2014,08,23,07,52,12.10
2014,08,23,07,53,12.10
2014,08,23,07,54,12.10
2014,08,23,07,55,12.10
2014,08,23,07,56,12.20
2014,08,23,07,57,12.20
2014,08,23,07,58,12.20
2014,08,23,07,59,12.30
2014,08,23,08,00,12.30
2014,08,23,08,01,12.30
2014,08,23,08,02,12.30
2014,08,23,08,03,12.30
2014,08,23,08,04,12.30
2014,08,23,08,05,12.30
2014,08,23,08,06,12.30
2014,08,23,08,07,12.30
2014,08,23,08,08,12.30
2014,08,23,08,09,12.30
2014,08,23,08,10,12.40
2014,08,23,08,11,12.40
2014,08,23,08,12,12.40
2014,08,23,08,13,12.50
2014,08,23,08,14,12.50
2014,08,23,08,15,12.50
2014,08,23,08,16,12.60
2014,08,23,08,17,12.60
2014,08,23,08,18,12.60
2014,08,23,08,19,12.70
2014,08,23,08,20,12.70
2014,08,23,08,21,12.80
2014,08,23,08,22,12.80
2014,08,23,08,23,12.80
2014,08,23,08,24,12.80
2014,08,23,08,25,12.90
2014,08,23,08,26,13.00
2014,08,23,08,27,13.00
2014,08,23,08,28,13.10
2014,08,23,08,29,13.10
2014,08,23,08,30,13.20
2014,08,23,08,31,13.30
2014,08,23,08,32,13.30
2014,08,23,08,33,13.40
2014,08,23,08,34,13.50
2014,08,23,08,35,13.50
2014,08,23,08,36,13.60
2014,08,23,08,37,13.70
2014,08,23,08,38,13.70
2014,08,23,08,39,13.80
2014,08,23,08,40,13.90
2014,08,23,08,41,14.00
2014,08,23,08,42,14.00
2014,08,23,08,43,14.10
2014,08,23,08,44,14.20
2014,08,23,08,45,14.20
2014,08,23,08,46,14.30
2014,08,23,08,47,14.30
2014,08,23,08,48,14.40
2014,08,23,08,49,14.40
2014,08,23,08,50,14.40
2014,08,23,08,51,14.50
2014,08,23,08,52,14.50
2014,08,23,08,53,14.50
2014,08,23,08,54,14.60
2014,08,23,08,55,14.60
2014,08,23,08,56,14.60
2014,08,23,08,57,14.70
2014,08,23,08,58,14.70
2014,08,23,08,59,14.70
2014,08,23,09,00,14.80
2014,08,23,09,01,14.80
2014,08,23,09,02,14.80
2014,08,23,09,03,14.80
2014,08,23,09,04,14.80
2014,08,23,09,05,14.90
2014,08,23,09,06,14.90
2014,08,23,09,07,15.00
2014,08,23,09,08,15.00
2014,08,23,09,09,15.10
2014,08,23,09,10,15.10
2014,08,23,09,11,15.20
2014,08,23,09,12,15.30
2014,08,23,09,13,15.30
2014,08,23,09,14,15.40
2014,08,23,09,15,15.40
2014,08,23,09,16,15.50
2014,08,23,09,17,15.60
2014,08,23,09,18,15.60
2014,08,23,09,19,15.70
2014,08,23,09,20,15.70
2014,08,23,09,21,15.70
2014,08,23,09,22,15.80
2014,08,23,09,23,15.80
2014,08,23,09,24,15.80
2014,08,23,09,25,15.90
2014,08,23,09,26,16.00
2014,08,23,09,27,16.10
2014,08,23,09,28,16.10
2014,08,23,09,29,16.10
2014,08,23,09,30,16.20
2014,08,23,09,31,16.30
2014,08,23,09,32,16.30
2014,08,23,09,33,16.40
2014,08,23,09,34,16.40
2014,08,23,09,35,16.50
2014,08,23,09,36,16.60
2014,08,23,09,37,16.60
2014,08,23,09,38,16.70
2014,08,23,09,39,16.70
2014,08,23,09,40,16.80
2014,08,23,09,41,16.80
2014,08,23,09,42,16.90
2014,08,23,09,43,17.00
2014,08,23,09,44,17.00
2014,08,23,09,45,17.10
2014,08,23,09,46,17.10
2014,08,23,09,47,17.20
2014,08,23,09,48,17.30
2014,08,23,09,49,17.30
2014,08,23,09,50,17.30
2014,08,23,09,51,17.40
2014,08,23,09,52,17.50
2014,08,23,09,53,17.50
2014,08,23,09,54,17.60
2014,08,23,09,55,17.80
2014,08,23,09,56,17.90
2014,08,23,09,57,17.90
2014,08,23,09,58,17.90
2014,08,23,09,59,18.00
2014,08,23,10,00,18.10
2014,08,23,10,01,18.20
2014,08,23,10,02,18.20
2014,08,23,10,03,18.20
2014,08,23,10,04,18.30
2014,08,23,10,05,18.40
2014,08,23,10,06,18.40
2014,08,23,10,07,18.50
2014,08,23,10,08,18.50
2014,08,23,10,09,18.60
2014,08,23,10,10,18.60
2014,08,23,10,11,18.70
2014,08,23,10,12,18.70
2014,08,23,10,13,18.80
2014,08,23,10,14,18.90
2014,08,23,10,15,18.90
2014,08,23,10,16,18.90
2014,08,23,10,17,18.90
2014,08,23,10,18,18.90
2014,08,23,10,19,19.00
2014,08,23,10,20,19.10
2014,08,23,10,21,19.10
2014,08,23,10,22,19.10
2014,08,23,10,23,19.10
2014,08,23,10,24,19.10
2014,08,23,10,25,19.10
2014,08,23,10,26,19.10
2014,08,23,10,27,19.10
2014,08,23,10,28,19.10
2014,08,23,10,29,19.10
2014,08,23,10,30,19.10
2014,08,23,10,31,19.10
2014,08,23,10,32,19.10
2014,08,23,10,33,19.20
2014,08,23,10,34,19.20
2014,08,23,10,35,19.20
2014,08,23,10,36,19.20
2014,08,23,10,37,19.30
2014,08,23,10,38,19.30
2014,08,23,10,39,19.30
2014,08,23,10,40,19.30
2014,08,23,10,41,19.40
2014,08,23,10,42,19.40
2014,08,23,10,43,19.40
2014,08,23,10,44,19.40
2014,08,23,10,45,19.40
2014,08,23,10,46,19.50
2014,08,23,10,47,19.50
2014,08,23,10,48,19.50
2014,08,23,10,49,19.50
2014,08,23,10,50,19.50
2014,08,23,10,51,19.50
2014,08,23,10,52,19.60
2014,08,23,10,53,19.60
2014,08,23,10,54,19.60
2014,08,23,10,55,19.60
2014,08,23,10,56,19.60
2014,08,23,10,57,19.70
2014,08,23,10,58,19.70
2014,08,23,10,59,19.80
2014,08,23,11,00,19.80
2014,08,23,11,01,19.90
2014,08,23,11,02,19.90
2014,08,23,11,03,19.90
2014,08,23,11,04,19.90
2014,08,23,11,05,19.90
2014,08,23,11,06,19.90
2014,08,23,11,07,20.00
2014,08,23,11,08,20.10
2014,08,23,11,09,20.10
2014,08,23,11,10,20.10
2014,08,23,11,11,20.10
2014,08,23,11,12,20.20
2014,08,23,11,13,20.20
2014,08,23,11,14,20.20
2014,08,23,11,15,20.20
2014,08,23,11,16,20.20
2014,08,23,11,17,20.20
2014,08,23,11,18,20.20
2014,08,23,11,19,20.20
2014,08,23,11,20,20.30
2014,08,23,11,21,20.30
2014,08,23,11,22,20.40
2014,08,23,11,23,20.40
2014,08,23,11,24,20.40
2014,08,23,11,25,20.50
2014,08,23,11,26,20.50
2014,08,23,11,27,20.50
2014,08,23,11,28,20.50
2014,08,23,11,29,20.50
2014,08,23,11,30,20.60
2014,08,23,11,31,20.60
2014,08,23,11,32,20.70
2014,08,23,11,33,20.70
2014,08,23,11,34,20.70
2014,08,23,11,35,20.80
2014,08,23,11,36,20.80
2014,08,23,11,37,20.80
2014,08,23,11,38,20.90
2014,08,23,11,39,20.90
2014,08,23,11,40,20.90
2014,08,23,11,41,21.00
2014,08,23,11,42,21.00
2014,08,23,11,43,21.10
2014,08,23,11,44,21.10
2014,08,23,11,45,21.20
2014,08,23,11,46,21.20
2014,08,23,11,47,21.30
2014,08,23,11,48,21.30
2014,08,23,11,49,21.40
2014,08,23,11,50,21.50
2014,08,23,11,51,21.60
2014,08,23,11,52,21.60
2014,08,23,11,53,21.70
2014,08,23,11,54,21.80
2014,08,23,11,55,21.90
2014,08,23,11,56,22.00
2014,08,23,11,57,22.00
2014,08,23,11,58,22.00
2014,08,23,11,59,22.10
2014,08,23,12,00,22.20
2014,08,23,12,01,22.30
2014,08,23,12,02,22.30
2014,08,23,12,03,22.40
2014,08,23,12,04,22.40
2014,08,23,12,05,22.50
2014,08,23,12,06,22.60
2014,08,23,12,07,22.60
2014,08,23,12,08,22.60
2014,08,23,12,09,22.60
2014,08,23,12,10,22.60
2014,08,23,12,11,22.60
2014,08,23,12,12,22.70
2014,08,23,12,13,22.70
2014,08,23,12,14,22.70
2014,08,23,12,15,22.70
2014,08,23,12,16,22.70
2014,08,23,12,17,22.80
2014,08,23,12,18,22.80
2014,08,23,12,19,22.80
2014,08,23,12,20,22.80
2014,08,23,12,21,22.80
2014,08,23,12,22,22.80
2014,08,23,12,23,22.90
2014,08,23,12,24,22.90
2014,08,23,12,25,22.90
2014,08,23,12,26,22.90
2014,08,23,12,27,22.90
2014,08,23,12,28,22.90
2014,08,23,12,29,23.00
2014,08,23,12,30,23.10
2014,08,23,12,31,23.10
2014,08,23,12,32,23.10
2014,08,23,12,33,23.10
2014,08,23,12,34,23.10
2014,08,23,12,35,23.10
2014,08,23,12,36,23.10
2014,08,23,12,37,23.10
2014,08,23,12,38,23.10
2014,08,23,12,39,23.10
2014,08,23,12,40,23.10
2014,08,23,12,41,23.10
2014,08,23,12,42,23.10
2014,08,23,12,43,23.00
2014,08,23,12,44,22.90
2014,08,23,12,45,22.90
2014,08,23,12,46,22.90
2014,08,23,12,47,22.90
2014,08,23,12,48,22.90
2014,08,23,12,49,22.90
2014,08,23,12,50,22.90
2014,08,23,12,51,23.00
2014,08,23,12,52,23.10
2014,08,23,12,53,23.10
2014,08,23,12,54,23.10
2014,08,23,12,55,23.20
2014,08,23,12,56,23.20
2014,08,23,12,57,23.20
2014,08,23,12,58,23.30
2014,08,23,12,59,23.30
2014,08,23,13,00,23.30
2014,08,23,13,01,23.30
2014,08,23,13,02,23.30
2014,08,23,13,03,23.30
2014,08,23,13,04,23.30
2014,08,23,13,05,23.40
2014,08,23,13,06,23.40
2014,08,23,13,07,23.40
2014,08,23,13,08,23.40
2014,08,23,13,09,23.40
2014,08,23,13,10,23.30
2014,08,23,13,11,23.30
2014,08,23,13,12,23.30
2014,08,23,13,13,23.30
2014,08,23,13,14,23.30
2014,08,23,13,15,23.30
2014,08,23,13,16,23.30
2014,08,23,13,17,23.30
2014,08,23,13,18,23.30
2014,08,23,13,19,23.30
2014,08,23,13,20,23.30
2014,08,23,13,21,23.30
2014,08,23,13,22,23.40
2014,08,23,13,23,23.40
2014,08,23,13,24,23.50
2014,08,23,13,25,23.60
2014,08,23,13,26,23.70
2014,08,23,13,27,23.70
2014,08,23,13,28,23.70
2014,08,23,13,29,23.70
2014,08,23,13,30,23.70
2014,08,23,13,31,23.80
2014,08,23,13,32,23.80
2014,08,23,13,33,23.90
2014,08,23,13,34,23.90
2014,08,23,13,35,23.90
2014,08,23,13,36,24.00
2014,08,23,13,37,24.10
2014,08,23,13,38,24.10
2014,08,23,13,39,24.10
2014,08,23,13,40,24.10
2014,08,23,13,41,24.10
2014,08,23,13,42,24.10
2014,08,23,13,43,24.10
2014,08,23,13,44,23.90
2014,08,23,13,45,23.90
2014,08,23,13,46,23.90
2014,08,23,13,47,24.00
2014,08,23,13,48,24.10
2014,08,23,13,49,24.10
2014,08,23,13,50,24.10
2014,08,23,13,51,24.20
2014,08,23,13,52,24.30
2014,08,23,13,53,24.30
2014,08,23,13,54,24.30
2014,08,23,13,55,24.30
2014,08,23,13,56,24.30
2014,08,23,13,57,24.30
2014,08,23,13,58,24.30
2014,08,23,13,59,24.40
2014,08,23,14,00,24.40
2014,08,23,14,01,24.50
2014,08,23,14,02,24.60
2014,08,23,14,03,24.60
2014,08,23,14,04,24.70
2014,08,23,14,05,24.80
2014,08,23,14,06,24.80
2014,08,23,14,07,24.80
2014,08,23,14,08,24.80
2014,08,23,14,09,24.80
2014,08,23,14,10,24.80
2014,08,23,14,11,24.80
2014,08,23,14,12,24.70
2014,08,23,14,13,24.70
2014,08,23,14,14,24.60
2014,08,23,14,15,24.60
2014,08,23,14,16,24.60
2014,08,23,14,17,24.60
2014,08,23,14,18,24.70
2014,08,23,14,19,24.70
2014,08,23,14,20,24.80
2014,08,23,14,21,24.80
2014,08,23,14,22,24.90
2014,08,23,14,23,24.90
2014,08,23,14,24,24.90
2014,08,23,14,25,24.90
2014,08,23,14,26,24.90
2014,08,23,14,27,24.80
2014,08,23,14,28,24.70
2014,08,23,14,29,24.70
2014,08,23,14,30,24.70
2014,08,23,14,31,24.80
2014,08,23,14,32,24.80
2014,08,23,14,33,24.80
2014,08,23,14,34,24.80
2014,08,23,14,35,24.90
2014,08,23,14,36,24.90
2014,08,23,14,37,24.90
2014,08,23,14,38,25.00
2014,08,23,14,39,25.00
2014,08,23,14,40,25.10
2014,08,23,14,41,25.10
2014,08,23,14,42,25.20
2014,08,23,14,43,25.20
2014,08,23,14,44,25.20
2014,08,23,14,45,25.20
2014,08,23,14,46,25.20
2014,08,23,14,47,25.30
2014,08,23,14,48,25.30
2014,08,23,14,49,25.30
2014,08,23,14,50,25.30
2014,08,23,14,51,25.30
2014,08,23,14,52,25.30
2014,08,23,14,53,25.30
2014,08,23,14,54,25.30
2014,08,23,14,55,25.30
2014,08,23,14,56,25.40
2014,08,23,14,57,25.40
2014,08,23,14,58,25.50
2014,08,23,14,59,25.50
2014,08,23,15,00,25.50
2014,08,23,15,01,25.60
2014,08,23,15,02,25.60
2014,08,23,15,03,25.60
2014,08,23,15,04,25.60
2014,08,23,15,05,25.70
2014,08,23,15,06,25.70
2014,08,23,15,07,25.70
2014,08,23,15,08,25.70
2014,08,23,15,09,25.70
2014,08,23,15,10,25.70
2014,08,23,15,11,25.80
2014,08,23,15,12,25.80
2014,08,23,15,13,25.80
2014,08,23,15,14,25.80
2014,08,23,15,15,25.80
2014,08,23,15,16,25.80
2014,08,23,15,17,25.80
2014,08,23,15,18,25.90
2014,08,23,15,19,25.90
2014,08,23,15,20,25.90
2014,08,23,15,21,25.90
2014,08,23,15,22,25.80
2014,08,23,15,23,25.80
2014,08,23,15,24,25.60
2014,08,23,15,25,25.60
2014,08,23,15,26,25.50
2014,08,23,15,27,25.50
2014,08,23,15,28,25.50
2014,08,23,15,29,25.50
2014,08,23,15,30,25.50
2014,08,23,15,31,25.50
2014,08,23,15,32,25.50
2014,08,23,15,33,25.40
2014,08,23,15,34,25.40
2014,08,23,15,35,25.40
2014,08,23,15,36,25.30
2014,08,23,15,37,25.30
2014,08,23,15,38,25.20
2014,08,23,15,39,25.20
2014,08,23,15,40,25.20
2014,08,23,15,41,25.20
2014,08,23,15,42,25.10
2014,08,23,15,43,25.10
2014,08,23,15,44,25.10
2014,08,23,15,45,25.10
2014,08,23,15,46,25.10
2014,08,23,15,47,25.00
2014,08,23,15,48,25.00
2014,08,23,15,49,25.00
2014,08,23,15,50,24.90
2014,08,23,15,51,24.90
2014,08,23,15,52,24.90
2014,08,23,15,53,24.80
2014,08,23,15,54,24.80
2014,08,23,15,55,24.80
2014,08,23,15,56,24.90
2014,08,23,15,57,24.90
2014,08,23,15,58,24.90
2014,08,23,15,59,24.90
2014,08,23,16,00,24.90
2014,08,23,16,01,24.90
2014,08,23,16,02,24.90
2014,08,23,16,03,24.90
2014,08,23,16,04,24.90
2014,08,23,16,05,24.90
2014,08,23,16,06,24.90
2014,08,23,16,07,24.90
2014,08,23,16,08,24.90
2014,08,23,16,09,24.90
2014,08,23,16,10,24.90
2014,08,23,16,11,24.90
2014,08,23,16,12,24.90
2014,08,23,16,13,24.90
2014,08,23,16,14,24.90
2014,08,23,16,15,24.90
2014,08,23,16,16,24.90
2014,08,23,16,17,24.90
2014,08,23,16,18,24.90
2014,08,23,16,19,24.90
2014,08,23,16,20,24.90
2014,08,23,16,21,24.90
2014,08,23,16,22,24.90
2014,08,23,16,23,24.90
2014,08,23,16,24,24.90
2014,08,23,16,25,24.90
2014,08,23,16,26,24.90
2014,08,23,16,27,24.90
2014,08,23,16,28,24.90
2014,08,23,16,29,24.80
2014,08,23,16,30,24.80
2014,08,23,16,31,24.80
2014,08,23,16,32,24.70
2014,08,23,16,33,24.70
2014,08,23,16,34,24.70
2014,08,23,16,35,24.60
2014,08,23,16,36,24.60
2014,08,23,16,37,24.60
2014,08,23,16,38,24.60
2014,08,23,16,39,24.50
2014,08,23,16,40,24.50
2014,08,23,16,41,24.50
2014,08,23,16,42,24.50
2014,08,23,16,43,24.50
2014,08,23,16,44,24.40
2014,08,23,16,45,24.40
2014,08,23,16,46,24.40
2014,08,23,16,47,24.40
2014,08,23,16,48,24.40
2014,08,23,16,49,24.40
2014,08,23,16,50,24.40
2014,08,23,16,51,24.30
2014,08,23,16,52,24.30
2014,08,23,16,53,24.30
2014,08,23,16,54,24.30
2014,08,23,16,55,24.30
2014,08,23,16,56,24.30
2014,08,23,16,57,24.30
2014,08,23,16,58,24.30
2014,08,23,16,59,24.20
2014,08,23,17,00,24.20
2014,08,23,17,01,24.20
2014,08,23,17,02,24.20
2014,08,23,17,03,24.10
2014,08,23,17,04,24.10
2014,08,23,17,05,24.10
2014,08,23,17,06,24.10
2014,08,23,17,07,24.10
2014,08,23,17,08,24.10
2014,08,23,17,09,24.10
2014,08,23,17,10,24.10
2014,08,23,17,11,24.00
2014,08,23,17,12,23.90
2014,08,23,17,13,23.90
2014,08,23,17,14,23.90
2014,08,23,17,15,23.80
2014,08,23,17,16,23.80
2014,08,23,17,17,23.80
2014,08,23,17,18,23.70
2014,08,23,17,19,23.70